Etusivu
METAR-TAF:

METAR-TAF

Lentoasemat :

Llano Municipal Airport

Llano, Texas, Yhdysvallat

Leveyspiiri: 30-47-01N, Pituuspiiri: 098-39-43W, korkeus merenpinnasta: 336 m

Tämänhetkinen sää

Tämä raportti tehtiin 28 minuuttia sitten, kello 10.35 UTC
Tuuli 5 kn luoteesta
Lämpötila 14°C
Kosteus 51%
Ilmanpaine 1021 hPa
Näkyvyys: 16.1 km
selkeää

METAR: KAQO 061035Z AUTO 31005KT 10SM CLR 14/04 A3016 RMK AO2 PWINO

Aika: 05:03 (11:03 UTC)


TAF: puuttuu

Säähavainnot ja -ennusteet yli 4000 lentoasemalta (METAR- ja TAF-raportit).

Käytössä olevat sääasemat on merkitty karttaan keltaisilla ja punaisilla pisteillä.

Aseta hiiri pisteen päälle nähdäksesi sääaseman nimen.

Klikkaa sitten nähdäksesi säähavainnot ja -ennusteet.

Kartan vaihtaminen: klikkaa mustalla rastilla varustettuja vihreitä pisteitä, niin voit zoomata sisään; viivalla varustettua vihreää pistettä, niin voit zoomata ulos tai vihreitä nuolia, niin pääset viereisille kartoille.


METAR-TAF: